Flag for United Arab Emirates Weather past 2 weeks in Sharjah, Sharjah, United Arab Emirates

Now
86 °F

Clear.


Feels Like: 92 °F
Forecast: 77 / 99 °F
Wind: 3 mph from Southeast

Location: Sharjah International Airport


UV Index: 7 (High)

Visibility: 10 mi


Pressure: 29.86 "Hg

Humidity: 62%

Dew point: 72 °F

Location of SharjahLocation

Historic Weather in Sharjah

°F

Sharjah temperature yesterday

Maximum temperature yesterday: 100 °F (at 3:00 PM)
Minimum temperature yesterday: 79 °F (at 12:00 AM)
Average temperature yesterday: 87 °F

Past Weeks' High & Low Weather Summary

 TemperatureHumidityPressure
High104 °F (Apr 16, 2:00 PM)83% (Apr 9, 5:00 AM)29.98 "Hg (Apr 9, 5:00 AM)
Low66 °F (Apr 9, 5:00 AM)5% (Apr 11, 12:00 PM)29.68 "Hg (Apr 17, 4:00 PM)
Average85 °F44%29.83 "Hg
* Reported Apr 8 8:00 PM — Apr 23 8:00 PM, Sharjah, Weather by CustomWeather, © 2014

Note: Actual official high and low records may vary slightly from our data, if they occured in-between our weather recording intervals... More about our weather records

Advertising

Historic Weather Conditions — Data for Previous 24 hours

 ConditionsComfort  
Time TempWeatherWind HumidityBarometerVisibility
8:00 PM
Apr 23
86 °FClear.5 mph62%29.86 "Hg10 mi
7:00 PM86 °FClear.5 mph66%29.86 "Hg10 mi
6:00 PM86 °FSunny.8 mph66%29.86 "Hg10 mi
5:00 PM90 °FSunny.12 mph63%29.83 "Hg10 mi
4:00 PM91 °FSunny.18 mph52%29.86 "Hg10 mi
3:00 PM93 °FPassing clouds.15 mph49%29.86 "HgN/A
2:00 PM95 °FPassing clouds.14 mph47%29.86 "HgN/A
1:00 PM99 °FPassing clouds.6 mph35%29.89 "HgN/A
12:00 PM95 °FPassing clouds.8 mph41%29.92 "HgN/A
11:00 AM93 °FPassing clouds.7 mph44%29.95 "HgN/A
10:00 AM90 °FPassing clouds.6 mph52%29.95 "HgN/A
9:00 AM88 °FPassing clouds.3 mph59%29.95 "HgN/A
8:00 AM84 °FSunny.6 mph66%29.95 "Hg10 mi
7:00 AM81 °FSunny.5 mph70%29.92 "Hg10 mi
6:00 AM79 °FSunny.7 mph74%29.89 "Hg10 mi
5:00 AM81 °FClear.8 mph70%29.89 "Hg10 mi
4:00 AM81 °FClear.6 mph70%29.86 "Hg10 mi
3:00 AM81 °FClear.6 mph70%29.86 "Hg10 mi
2:00 AM81 °FClear.3 mph66%29.89 "Hg10 mi
1:00 AM82 °FClear.2 mph62%29.89 "Hg10 mi
12:00 AM84 °FClear.5 mph62%29.89 "Hg10 mi
11:00 PM
Apr 22
84 °FClear.10 mph62%29.92 "Hg10 mi
10:00 PM86 °FClear.9 mph59%29.92 "Hg10 mi
9:00 PM86 °FClear.6 mph49%29.89 "Hg10 mi
Weather by CustomWeather, © 2014

See weather overview